Time,TemperatureF,DewpointF,PressureIn,WindDirection,WindDirectionDegrees,WindSpeedMPH,WindSpeedGustMPH,Humidity,HourlyPrecipIn,Conditions,Clouds,dailyrainin,SoftwareType,DateUTC
2013-03-05 00:05:00,35.7,33.6,29.90,SE,143,1.0,1.0,92,0.00,,,0.01,Wunderground v.1.15,2013-03-05 08:05:00,
2013-03-05 00:10:00,36.1,34.0,29.90,SE,144,2.0,3.0,92,0.00,,,0.01,Wunderground v.1.15,2013-03-05 08:10:00,
2013-03-05 00:15:00,36.5,34.1,29.90,SE,136,3.0,5.0,91,0.00,,,0.00,Wunderground v.1.15,2013-03-05 08:15:00,
2013-03-05 00:20:00,36.8,33.9,29.90,SSE,155,4.0,4.0,89,0.00,,,0.00,Wunderground v.1.15,2013-03-05 08:20:00,
2013-03-05 00:30:00,35.7,32.5,29.90,ENE,57,1.0,1.0,88,0.00,,,0.00,Wunderground v.1.15,2013-03-05 08:30:00,
2013-03-05 00:34:00,35.4,32.5,29.90,ENE,57,1.0,1.0,89,0.00,,,0.00,Wunderground v.1.15,2013-03-05 08:34:00,
2013-03-05 00:39:00,35.3,32.4,29.90,ESE,121,0.0,1.0,89,0.00,,,0.00,Wunderground v.1.15,2013-03-05 08:39:00,
2013-03-05 00:44:00,35.8,33.2,29.90,East,94,1.0,1.0,90,0.00,,,0.00,Wunderground v.1.15,2013-03-05 08:44:00,
2013-03-05 00:50:00,36.2,33.3,29.90,East,100,1.0,1.0,89,0.00,,,0.00,Wunderground v.1.15,2013-03-05 08:50:00,
2013-03-05 00:55:00,36.8,33.6,29.90,SE,136,2.0,3.0,88,0.00,,,0.00,Wunderground v.1.15,2013-03-05 08:55:00,
2013-03-05 01:00:00,37.1,33.6,29.90,ESE,115,3.0,3.0,87,0.00,,,0.00,Wunderground v.1.15,2013-03-05 09:00:00,
2013-03-05 01:05:00,37.5,33.7,29.89,ESE,106,4.0,4.0,86,0.00,,,0.00,Wunderground v.1.15,2013-03-05 09:05:00,
2013-03-05 01:10:00,37.8,34.0,29.89,ESE,122,5.0,5.0,86,0.00,,,0.00,Wunderground v.1.15,2013-03-05 09:10:00,
2013-03-05 01:15:00,38.0,34.2,29.89,SE,134,8.0,9.0,86,0.00,,,0.00,Wunderground v.1.15,2013-03-05 09:15:00,
2013-03-05 01:20:00,38.1,34.3,29.89,SE,136,9.0,9.0,86,0.00,,,0.00,Wunderground v.1.15,2013-03-05 09:20:00,
2013-03-05 01:24:00,38.1,34.0,29.89,SE,136,9.0,10.0,85,0.00,,,0.00,Wunderground v.1.15,2013-03-05 09:24:00,
2013-03-05 01:29:00,38.1,33.4,29.89,SE,128,9.0,9.0,83,0.00,,,0.00,Wunderground v.1.15,2013-03-05 09:29:00,
2013-03-05 01:35:00,38.4,34.0,29.88,SE,130,9.0,9.0,84,0.00,,,0.00,Wunderground v.1.15,2013-03-05 09:35:00,
2013-03-05 01:40:00,38.5,33.5,29.88,SE,137,8.0,9.0,82,0.00,,,0.00,Wunderground v.1.15,2013-03-05 09:40:00,
2013-03-05 01:45:00,38.6,33.6,29.88,SE,136,8.0,9.0,82,0.00,,,0.00,Wunderground v.1.15,2013-03-05 09:45:00,
2013-03-05 01:50:00,38.7,33.4,29.88,SE,131,8.0,8.0,81,0.00,,,0.00,Wunderground v.1.15,2013-03-05 09:50:00,
2013-03-05 01:59:00,39.2,33.2,29.88,ESE,122,8.0,8.0,79,0.00,,,0.00,Wunderground v.1.15,2013-03-05 09:59:00,
2013-03-05 02:05:00,39.6,33.6,29.88,SE,134,8.0,8.0,79,0.00,,,0.00,Wunderground v.1.15,2013-03-05 10:05:00,
2013-03-05 02:10:00,40.2,32.9,29.87,SE,140,7.0,9.0,75,0.00,,,0.00,Wunderground v.1.15,2013-03-05 10:10:00,
2013-03-05 02:15:00,40.5,32.9,29.87,SE,146,8.0,9.0,74,0.00,,,0.00,Wunderground v.1.15,2013-03-05 10:15:00,
2013-03-05 02:20:00,40.5,32.5,29.87,SE,132,8.0,8.0,73,0.00,,,0.00,Wunderground v.1.15,2013-03-05 10:20:00,
2013-03-05 02:30:00,39.8,32.5,29.87,SE,139,7.0,7.0,75,0.00,,,0.00,Wunderground v.1.15,2013-03-05 10:30:00,
2013-03-05 02:35:00,39.7,32.4,29.87,SSE,151,7.0,9.0,75,0.00,,,0.00,Wunderground v.1.15,2013-03-05 10:35:00,
2013-03-05 02:44:00,39.8,32.5,29.86,SE,125,8.0,8.0,75,0.00,,,0.00,Wunderground v.1.15,2013-03-05 10:44:00,
2013-03-05 02:50:00,39.8,32.8,29.86,SE,137,7.0,7.0,76,0.00,,,0.00,Wunderground v.1.15,2013-03-05 10:50:00,
2013-03-05 02:55:00,39.6,33.0,29.86,ESE,119,7.0,7.0,77,0.00,,,0.00,Wunderground v.1.15,2013-03-05 10:55:00,
2013-03-05 03:00:00,39.4,33.4,29.85,SE,129,6.0,6.0,79,0.00,,,0.00,Wunderground v.1.15,2013-03-05 11:00:00,
2013-03-05 03:05:00,39.3,33.0,29.85,SE,138,6.0,7.0,78,0.00,,,0.00,Wunderground v.1.15,2013-03-05 11:05:00,
2013-03-05 03:10:00,39.4,33.1,29.85,SE,145,7.0,9.0,78,0.00,,,0.00,Wunderground v.1.15,2013-03-05 11:10:00,
2013-03-05 03:15:00,39.5,32.6,29.85,SE,146,8.0,9.0,76,0.00,,,0.00,Wunderground v.1.15,2013-03-05 11:15:00,
2013-03-05 03:25:00,40.0,33.0,29.85,SE,139,7.0,8.0,76,0.00,,,0.00,Wunderground v.1.15,2013-03-05 11:25:00,
2013-03-05 03:29:00,40.4,32.4,29.85,SE,144,6.0,7.0,73,0.00,,,0.00,Wunderground v.1.15,2013-03-05 11:29:00,
2013-03-05 03:35:00,40.7,32.7,29.85,SE,125,7.0,8.0,73,0.00,,,0.00,Wunderground v.1.15,2013-03-05 11:35:00,
2013-03-05 03:40:00,40.8,33.8,29.85,SE,133,6.0,6.0,76,0.00,,,0.00,Wunderground v.1.15,2013-03-05 11:40:00,
2013-03-05 03:45:00,40.8,33.5,29.85,SE,130,5.0,6.0,75,0.00,,,0.00,Wunderground v.1.15,2013-03-05 11:45:00,
2013-03-05 03:54:00,41.2,32.2,29.85,ESE,116,2.0,3.0,70,0.00,,,0.00,Wunderground v.1.15,2013-03-05 11:54:00,
2013-03-05 03:59:00,41.1,32.8,29.84,East,101,2.0,2.0,72,0.00,,,0.00,Wunderground v.1.15,2013-03-05 11:59:00,
2013-03-05 04:05:00,40.7,32.7,29.84,East,95,2.0,3.0,73,0.00,,,0.00,Wunderground v.1.15,2013-03-05 12:05:00,
2013-03-05 04:10:00,40.5,32.9,29.84,East,96,3.0,3.0,74,0.00,,,0.00,Wunderground v.1.15,2013-03-05 12:10:00,
2013-03-05 04:15:00,40.2,32.9,29.84,East,99,3.0,3.0,75,0.00,,,0.00,Wunderground v.1.15,2013-03-05 12:15:00,
2013-03-05 04:20:00,40.0,33.0,29.84,SE,134,2.0,6.0,76,0.00,,,0.00,Wunderground v.1.15,2013-03-05 12:20:00,
2013-03-05 04:30:00,39.7,34.0,29.84,SE,127,7.0,7.0,80,0.00,,,0.00,Wunderground v.1.15,2013-03-05 12:30:00,
2013-03-05 04:39:00,39.6,33.6,29.83,SE,124,8.0,9.0,79,0.00,,,0.00,Wunderground v.1.15,2013-03-05 12:39:00,
2013-03-05 04:44:00,39.5,34.2,29.83,SE,137,8.0,9.0,81,0.00,,,0.00,Wunderground v.1.15,2013-03-05 12:44:00,
2013-03-05 04:50:00,39.4,33.7,29.83,SE,135,7.0,7.0,80,0.00,,,0.00,Wunderground v.1.15,2013-03-05 12:50:00,
2013-03-05 04:55:00,39.5,33.8,29.83,SE,144,7.0,8.0,80,0.00,,,0.00,Wunderground v.1.15,2013-03-05 12:55:00,
2013-03-05 05:00:00,39.6,33.6,29.83,SSE,149,7.0,7.0,79,0.00,,,0.00,Wunderground v.1.15,2013-03-05 13:00:00,
2013-03-05 05:10:00,39.7,34.0,29.83,SE,143,5.0,5.0,80,0.00,,,0.00,Wunderground v.1.15,2013-03-05 13:10:00,
2013-03-05 05:15:00,39.8,34.1,29.83,SE,142,4.0,5.0,80,0.00,,,0.00,Wunderground v.1.15,2013-03-05 13:15:00,
2013-03-05 05:20:00,39.8,34.4,29.83,SE,136,4.0,4.0,81,0.00,,,0.01,Wunderground v.1.15,2013-03-05 13:20:00,
2013-03-05 05:25:00,39.8,34.1,29.83,SE,142,3.0,4.0,80,0.00,,,0.01,Wunderground v.1.15,2013-03-05 13:25:00,
2013-03-05 05:35:00,40.0,34.9,29.83,SSE,151,3.0,4.0,82,0.00,,,0.02,Wunderground v.1.15,2013-03-05 13:35:00,
2013-03-05 05:40:00,40.2,35.1,29.83,SSE,147,4.0,4.0,82,0.00,,,0.02,Wunderground v.1.15,2013-03-05 13:40:00,
2013-03-05 05:45:00,40.2,35.4,29.83,SE,128,4.0,4.0,83,0.00,,,0.02,Wunderground v.1.15,2013-03-05 13:45:00,
2013-03-05 05:49:00,39.9,35.8,29.83,ESE,122,3.0,3.0,85,0.00,,,0.02,Wunderground v.1.15,2013-03-05 13:49:00,
2013-03-05 05:54:00,39.5,36.0,29.83,ESE,122,2.0,3.0,87,0.00,,,0.02,Wunderground v.1.15,2013-03-05 13:54:00,
2013-03-05 05:59:00,39.3,36.0,29.83,SE,126,1.0,3.0,88,0.00,,,0.02,Wunderground v.1.15,2013-03-05 13:59:00,
2013-03-05 06:05:00,39.4,36.4,29.83,ESE,115,3.0,3.0,89,0.00,,,0.03,Wunderground v.1.15,2013-03-05 14:05:00,
2013-03-05 06:10:00,39.4,36.4,29.83,SE,131,4.0,4.0,89,0.00,,,0.03,Wunderground v.1.15,2013-03-05 14:10:00,
2013-03-05 06:15:00,39.4,36.4,29.83,SE,130,4.0,5.0,89,0.00,,,0.03,Wunderground v.1.15,2013-03-05 14:15:00,
2013-03-05 06:20:00,39.4,36.4,29.83,SE,127,4.0,4.0,89,0.00,,,0.03,Wunderground v.1.15,2013-03-05 14:20:00,
2013-03-05 06:25:00,39.1,35.8,29.83,ESE,123,2.0,4.0,88,0.00,,,0.03,Wunderground v.1.15,2013-03-05 14:25:00,
2013-03-05 06:30:00,38.9,35.4,29.84,ESE,115,1.0,1.0,87,0.00,,,0.04,Wunderground v.1.15,2013-03-05 14:30:00,
2013-03-05 06:39:00,38.7,35.5,29.84,ESE,115,1.0,1.0,88,0.00,,,0.04,Wunderground v.1.15,2013-03-05 14:39:00,
2013-03-05 06:44:00,38.6,35.4,29.84,ESE,115,1.0,2.0,88,0.04,,,0.05,Wunderground v.1.15,2013-03-05 14:44:00,
2013-03-05 06:50:00,38.6,35.4,29.84,SE,125,1.0,2.0,88,0.04,,,0.05,Wunderground v.1.15,2013-03-05 14:50:00,
2013-03-05 06:55:00,38.6,35.6,29.84,ESE,123,2.0,2.0,89,0.04,,,0.05,Wunderground v.1.15,2013-03-05 14:55:00,
2013-03-05 07:00:00,38.6,35.4,29.84,ESE,113,2.0,2.0,88,0.04,,,0.06,Wunderground v.1.15,2013-03-05 15:00:00,
2013-03-05 07:05:00,38.5,35.5,29.83,East,99,2.0,2.0,89,0.04,,,0.06,Wunderground v.1.15,2013-03-05 15:05:00,
2013-03-05 07:10:00,38.5,35.5,29.83,East,100,2.0,2.0,89,0.04,,,0.06,Wunderground v.1.15,2013-03-05 15:10:00,
2013-03-05 07:15:00,38.4,35.7,29.83,ESE,103,2.0,2.0,90,0.04,,,0.06,Wunderground v.1.15,2013-03-05 15:15:00,
2013-03-05 07:20:00,38.4,35.7,29.83,ESE,103,2.0,2.0,90,0.00,,,0.06,Wunderground v.1.15,2013-03-05 15:20:00,
2013-03-05 07:25:00,38.4,35.7,29.83,SE,140,2.0,4.0,90,0.00,,,0.06,Wunderground v.1.15,2013-03-05 15:25:00,
2013-03-05 07:30:00,38.6,36.2,29.83,SE,134,2.0,4.0,91,0.00,,,0.07,Wunderground v.1.15,2013-03-05 15:30:00,
2013-03-05 07:35:00,38.7,36.0,29.83,East,98,3.0,6.0,90,0.00,,,0.07,Wunderground v.1.15,2013-03-05 15:35:00,
2013-03-05 07:40:00,38.7,36.0,29.83,ESE,117,3.0,10.0,90,0.00,,,0.07,Wunderground v.1.15,2013-03-05 15:40:00,
2013-03-05 07:45:00,39.4,36.4,29.83,SE,133,6.0,10.0,89,0.00,,,0.07,Wunderground v.1.15,2013-03-05 15:45:00,
2013-03-05 07:50:00,39.7,36.7,29.83,SE,142,9.0,12.0,89,0.00,,,0.07,Wunderground v.1.15,2013-03-05 15:50:00,
2013-03-05 08:00:00,40.0,36.7,29.83,SE,142,9.0,9.0,88,0.00,,,0.08,Wunderground v.1.15,2013-03-05 16:00:00,
2013-03-05 08:05:00,39.7,36.4,29.83,SE,138,9.0,9.0,88,0.00,,,0.08,Wunderground v.1.15,2013-03-05 16:05:00,
2013-03-05 08:10:00,39.5,36.5,29.83,SE,128,8.0,9.0,89,0.00,,,0.08,Wunderground v.1.15,2013-03-05 16:10:00,
2013-03-05 08:15:00,39.5,36.5,29.83,SE,134,8.0,9.0,89,0.00,,,0.08,Wunderground v.1.15,2013-03-05 16:15:00,
2013-03-05 08:19:00,39.7,36.7,29.83,SE,132,8.0,8.0,89,0.00,,,0.09,Wunderground v.1.15,2013-03-05 16:19:00,
2013-03-05 08:24:00,39.8,36.8,29.83,SE,135,7.0,8.0,89,0.00,,,0.09,Wunderground v.1.15,2013-03-05 16:24:00,
2013-03-05 08:29:00,39.7,36.7,29.84,SE,144,6.0,8.0,89,0.00,,,0.09,Wunderground v.1.15,2013-03-05 16:29:00,
2013-03-05 08:35:00,39.7,36.4,29.83,SE,138,7.0,8.0,88,0.00,,,0.09,Wunderground v.1.15,2013-03-05 16:35:00,
2013-03-05 08:44:00,39.5,36.5,29.84,SSE,148,7.0,7.0,89,0.00,,,0.09,Wunderground v.1.15,2013-03-05 16:44:00,
2013-03-05 08:50:00,39.4,36.7,29.84,SE,134,6.0,6.0,90,0.00,,,0.09,Wunderground v.1.15,2013-03-05 16:50:00,
2013-03-05 08:55:00,39.2,36.5,29.84,SE,130,5.0,6.0,90,0.00,,,0.09,Wunderground v.1.15,2013-03-05 16:55:00,
2013-03-05 09:00:00,39.0,36.3,29.84,SSE,148,5.0,6.0,90,0.00,,,0.09,Wunderground v.1.15,2013-03-05 17:00:00,
2013-03-05 09:04:00,38.7,36.3,29.84,SSE,148,5.0,6.0,91,0.00,,,0.10,Wunderground v.1.15,2013-03-05 17:04:00,
2013-03-05 09:10:00,38.7,36.6,29.84,SE,146,6.0,7.0,92,0.00,,,0.10,Wunderground v.1.15,2013-03-05 17:10:00,
2013-03-05 09:15:00,38.7,36.6,29.84,SSE,151,6.0,7.0,92,0.00,,,0.10,Wunderground v.1.15,2013-03-05 17:15:00,
2013-03-05 09:20:00,38.7,36.6,29.83,SE,141,7.0,7.0,92,0.00,,,0.10,Wunderground v.1.15,2013-03-05 17:20:00,
2013-03-05 09:25:00,38.8,36.7,29.83,SE,134,5.0,7.0,92,0.00,,,0.10,Wunderground v.1.15,2013-03-05 17:25:00,
2013-03-05 09:30:00,38.9,36.8,29.83,SE,141,5.0,5.0,92,0.00,,,0.10,Wunderground v.1.15,2013-03-05 17:30:00,
2013-03-05 09:35:00,38.9,37.0,29.84,SE,146,5.0,5.0,93,0.00,,,0.10,Wunderground v.1.15,2013-03-05 17:35:00,
2013-03-05 09:40:00,39.0,37.1,29.83,SE,143,4.0,4.0,93,0.00,,,0.10,Wunderground v.1.15,2013-03-05 17:40:00,
2013-03-05 09:45:00,39.1,37.2,29.83,SE,140,4.0,5.0,93,0.00,,,0.10,Wunderground v.1.15,2013-03-05 17:45:00,
2013-03-05 09:49:00,39.2,37.3,29.83,SE,141,4.0,4.0,93,0.00,,,0.10,Wunderground v.1.15,2013-03-05 17:49:00,
2013-03-05 09:54:00,39.4,37.5,29.83,SE,142,4.0,4.0,93,0.00,,,0.10,Wunderground v.1.15,2013-03-05 17:54:00,
2013-03-05 10:00:00,39.5,37.6,29.83,SE,146,3.0,3.0,93,0.00,,,0.10,Wunderground v.1.15,2013-03-05 18:00:00,
2013-03-05 10:05:00,39.7,37.8,29.83,SE,144,4.0,4.0,93,0.00,,,0.10,Wunderground v.1.15,2013-03-05 18:05:00,
2013-03-05 10:10:00,39.8,37.9,29.83,SE,130,4.0,4.0,93,0.00,,,0.10,Wunderground v.1.15,2013-03-05 18:10:00,
2013-03-05 10:15:00,40.1,38.5,29.83,SE,144,4.0,5.0,94,0.00,,,0.10,Wunderground v.1.15,2013-03-05 18:15:00,
2013-03-05 10:24:00,40.8,38.9,29.83,SE,134,7.0,8.0,93,0.00,,,0.10,Wunderground v.1.15,2013-03-05 18:24:00,
2013-03-05 10:29:00,41.0,39.1,29.83,SE,141,5.0,5.0,93,0.00,,,0.10,Wunderground v.1.15,2013-03-05 18:29:00,
2013-03-05 10:35:00,41.5,39.9,29.83,East,90,4.0,5.0,94,0.00,,,0.10,Wunderground v.1.15,2013-03-05 18:35:00,
2013-03-05 10:40:00,41.9,40.0,29.83,East,98,3.0,7.0,93,0.00,,,0.10,Wunderground v.1.15,2013-03-05 18:40:00,
2013-03-05 10:45:00,42.0,40.1,29.83,East,101,3.0,7.0,93,0.00,,,0.10,Wunderground v.1.15,2013-03-05 18:45:00,
2013-03-05 10:50:00,41.8,39.6,29.83,East,101,3.0,5.0,92,0.00,,,0.10,Wunderground v.1.15,2013-03-05 18:50:00,
2013-03-05 10:55:00,41.6,39.4,29.83,SE,128,4.0,5.0,92,0.00,,,0.10,Wunderground v.1.15,2013-03-05 18:55:00,
2013-03-05 10:59:00,41.6,39.4,29.83,ESE,109,4.0,4.0,92,0.00,,,0.10,Wunderground v.1.15,2013-03-05 18:59:00,
2013-03-05 11:05:00,41.5,39.1,29.83,ESE,105,4.0,4.0,91,0.00,,,0.10,Wunderground v.1.15,2013-03-05 19:05:00,
2013-03-05 11:10:00,41.6,39.4,29.82,East,82,5.0,6.0,92,0.00,,,0.10,Wunderground v.1.15,2013-03-05 19:10:00,
2013-03-05 11:15:00,41.6,39.2,29.82,ESE,109,5.0,6.0,91,0.00,,,0.11,Wunderground v.1.15,2013-03-05 19:15:00,
2013-03-05 11:20:00,41.6,39.2,29.82,East,93,5.0,5.0,91,0.00,,,0.11,Wunderground v.1.15,2013-03-05 19:20:00,
2013-03-05 11:30:00,41.6,39.2,29.82,ESE,103,4.0,4.0,91,0.00,,,0.11,Wunderground v.1.15,2013-03-05 19:30:00,
2013-03-05 11:40:00,41.5,39.1,29.81,ESE,115,5.0,5.0,91,0.00,,,0.11,Wunderground v.1.15,2013-03-05 19:40:00,
2013-03-05 11:45:00,41.5,39.1,29.82,East,101,5.0,5.0,91,0.00,,,0.11,Wunderground v.1.15,2013-03-05 19:45:00,
2013-03-05 11:50:00,41.6,39.2,29.82,ESE,105,4.0,5.0,91,0.00,,,0.11,Wunderground v.1.15,2013-03-05 19:50:00,
2013-03-05 12:00:00,41.6,38.9,29.82,East,91,4.0,4.0,90,0.00,,,0.12,Wunderground v.1.15,2013-03-05 20:00:00,
2013-03-05 12:04:00,41.7,39.0,29.82,ESE,117,3.0,5.0,90,0.00,,,0.12,Wunderground v.1.15,2013-03-05 20:04:00,
2013-03-05 12:09:00,41.6,38.9,29.82,East,91,3.0,3.0,90,0.00,,,0.12,Wunderground v.1.15,2013-03-05 20:09:00,
2013-03-05 12:14:00,41.6,38.9,29.82,SE,132,3.0,4.0,90,0.00,,,0.12,Wunderground v.1.15,2013-03-05 20:14:00,
2013-03-05 12:20:00,41.7,38.7,29.82,East,92,4.0,4.0,89,0.00,,,0.12,Wunderground v.1.15,2013-03-05 20:20:00,
2013-03-05 12:25:00,41.8,39.1,29.81,ESE,105,4.0,7.0,90,0.00,,,0.12,Wunderground v.1.15,2013-03-05 20:25:00,
2013-03-05 12:35:00,42.1,39.1,29.82,ESE,107,3.0,4.0,89,0.00,,,0.12,Wunderground v.1.15,2013-03-05 20:35:00,
2013-03-05 12:40:00,42.1,38.8,29.81,ESE,103,4.0,4.0,88,0.00,,,0.12,Wunderground v.1.15,2013-03-05 20:40:00,
2013-03-05 12:45:00,42.1,38.8,29.82,ESE,106,4.0,4.0,88,0.00,,,0.12,Wunderground v.1.15,2013-03-05 20:45:00,
2013-03-05 12:50:00,42.1,38.5,29.81,ESE,119,3.0,3.0,87,0.00,,,0.12,Wunderground v.1.15,2013-03-05 20:50:00,
2013-03-05 12:55:00,42.0,38.4,29.81,East,82,3.0,3.0,87,0.00,,,0.12,Wunderground v.1.15,2013-03-05 20:55:00,
2013-03-05 13:00:00,41.9,38.0,29.81,ESE,123,3.0,3.0,86,0.00,,,0.12,Wunderground v.1.15,2013-03-05 21:00:00,
2013-03-05 13:09:00,41.8,37.9,29.81,ESE,107,3.0,3.0,86,0.00,,,0.12,Wunderground v.1.15,2013-03-05 21:09:00,
2013-03-05 13:14:00,41.8,37.9,29.81,ESE,110,3.0,3.0,86,0.00,,,0.12,Wunderground v.1.15,2013-03-05 21:14:00,
2013-03-05 13:20:00,41.9,38.0,29.81,SE,134,3.0,3.0,86,0.00,,,0.12,Wunderground v.1.15,2013-03-05 21:20:00,
2013-03-05 13:25:00,42.0,38.1,29.81,ESE,105,3.0,3.0,86,0.00,,,0.12,Wunderground v.1.15,2013-03-05 21:25:00,
2013-03-05 13:30:00,42.1,38.2,29.81,ESE,120,3.0,3.0,86,0.00,,,0.12,Wunderground v.1.15,2013-03-05 21:30:00,
2013-03-05 13:34:00,42.2,38.3,29.81,SE,125,4.0,4.0,86,0.00,,,0.12,Wunderground v.1.15,2013-03-05 21:34:00,
2013-03-05 13:39:00,42.3,38.4,29.81,SE,125,5.0,5.0,86,0.00,,,0.12,Wunderground v.1.15,2013-03-05 21:39:00,
2013-03-05 13:45:00,42.2,38.3,29.80,SE,144,5.0,5.0,86,0.00,,,0.12,Wunderground v.1.15,2013-03-05 21:45:00,
2013-03-05 13:55:00,42.1,38.5,29.80,SE,144,5.0,6.0,87,0.00,,,0.12,Wunderground v.1.15,2013-03-05 21:55:00,
2013-03-05 13:59:00,42.0,38.4,29.80,SE,145,5.0,5.0,87,0.00,,,0.12,Wunderground v.1.15,2013-03-05 21:59:00,
2013-03-05 14:05:00,42.0,38.7,29.80,SE,139,5.0,5.0,88,0.00,,,0.12,Wunderground v.1.15,2013-03-05 22:05:00,
2013-03-05 14:10:00,42.0,38.7,29.80,SE,133,5.0,5.0,88,0.00,,,0.13,Wunderground v.1.15,2013-03-05 22:10:00,
2013-03-05 14:15:00,42.0,38.7,29.80,SE,133,5.0,5.0,88,0.00,,,0.13,Wunderground v.1.15,2013-03-05 22:15:00,
2013-03-05 14:19:00,41.9,38.6,29.80,SE,136,5.0,6.0,88,0.00,,,0.13,Wunderground v.1.15,2013-03-05 22:19:00,
2013-03-05 14:25:00,42.0,38.7,29.80,SE,138,6.0,6.0,88,0.04,,,0.14,Wunderground v.1.15,2013-03-05 22:25:00,
2013-03-05 14:35:00,42.0,38.7,29.80,SE,143,6.0,6.0,88,0.04,,,0.14,Wunderground v.1.15,2013-03-05 22:35:00,
2013-03-05 14:40:00,42.0,38.7,29.80,SSE,150,6.0,6.0,88,0.04,,,0.14,Wunderground v.1.15,2013-03-05 22:40:00,
2013-03-05 14:45:00,42.1,38.8,29.79,SSE,155,5.0,6.0,88,0.00,,,0.14,Wunderground v.1.15,2013-03-05 22:45:00,
2013-03-05 14:49:00,42.1,39.1,29.80,SSE,149,5.0,5.0,89,0.00,,,0.14,Wunderground v.1.15,2013-03-05 22:49:00,
2013-03-05 14:54:00,42.1,39.1,29.79,SSE,150,4.0,5.0,89,0.00,,,0.14,Wunderground v.1.15,2013-03-05 22:54:00,
2013-03-05 15:00:00,42.2,39.2,29.79,SE,134,4.0,4.0,89,0.00,,,0.14,Wunderground v.1.15,2013-03-05 23:00:00,
2013-03-05 15:05:00,42.2,39.2,29.79,SE,139,4.0,4.0,89,0.00,,,0.14,Wunderground v.1.15,2013-03-05 23:05:00,
2013-03-05 15:10:00,42.4,39.7,29.79,SE,128,4.0,5.0,90,0.00,,,0.14,Wunderground v.1.15,2013-03-05 23:10:00,
2013-03-05 15:15:00,42.5,39.8,29.78,SE,127,4.0,5.0,90,0.00,,,0.14,Wunderground v.1.15,2013-03-05 23:15:00,
2013-03-05 15:20:00,42.5,39.8,29.78,SE,130,5.0,5.0,90,0.00,,,0.14,Wunderground v.1.15,2013-03-05 23:20:00,
2013-03-05 15:25:00,42.5,39.5,29.78,SE,126,5.0,5.0,89,0.00,,,0.14,Wunderground v.1.15,2013-03-05 23:25:00,
2013-03-05 15:30:00,42.6,39.6,29.78,SE,127,4.0,4.0,89,0.00,,,0.14,Wunderground v.1.15,2013-03-05 23:30:00,
2013-03-05 15:39:00,42.8,39.8,29.78,SE,130,3.0,3.0,89,0.00,,,0.14,Wunderground v.1.15,2013-03-05 23:39:00,
2013-03-05 15:44:00,42.8,39.8,29.78,SE,130,3.0,3.0,89,0.00,,,0.14,Wunderground v.1.15,2013-03-05 23:44:00,
2013-03-05 15:50:00,42.8,39.8,29.78,SE,130,2.0,2.0,89,0.00,,,0.14,Wunderground v.1.15,2013-03-05 23:50:00,
2013-03-05 15:55:00,42.9,40.2,29.78,SE,130,1.0,2.0,90,0.00,,,0.14,Wunderground v.1.15,2013-03-05 23:55:00,
2013-03-05 16:00:00,42.9,40.2,29.78,SE,130,0.0,0.0,90,0.00,,,0.14,Wunderground v.1.15,2013-03-06 00:00:00,
2013-03-05 16:04:00,42.9,39.9,29.78,SE,130,0.0,0.0,89,0.00,,,0.14,Wunderground v.1.15,2013-03-06 00:04:00,
2013-03-05 16:09:00,42.9,40.2,29.78,SE,130,0.0,0.0,90,0.00,,,0.14,Wunderground v.1.15,2013-03-06 00:09:00,
2013-03-05 16:14:00,43.0,40.3,29.78,SE,130,0.0,0.0,90,0.00,,,0.14,Wunderground v.1.15,2013-03-06 00:14:00,
2013-03-05 16:20:00,43.1,40.4,29.77,SE,130,0.0,1.0,90,0.00,,,0.14,Wunderground v.1.15,2013-03-06 00:20:00,
2013-03-05 16:25:00,43.1,40.4,29.77,SE,130,0.0,2.0,90,0.00,,,0.14,Wunderground v.1.15,2013-03-06 00:25:00,
2013-03-05 16:30:00,43.2,40.2,29.77,SE,130,0.0,0.0,89,0.00,,,0.14,Wunderground v.1.15,2013-03-06 00:30:00,
2013-03-05 16:35:00,43.2,40.2,29.78,SE,130,0.0,0.0,89,0.00,,,0.14,Wunderground v.1.15,2013-03-06 00:35:00,
2013-03-05 16:40:00,43.1,40.1,29.78,SE,130,0.0,2.0,89,0.00,,,0.14,Wunderground v.1.15,2013-03-06 00:40:00,
2013-03-05 16:45:00,43.1,39.8,29.77,SE,130,1.0,2.0,88,0.00,,,0.14,Wunderground v.1.15,2013-03-06 00:45:00,
2013-03-05 16:50:00,43.1,40.1,29.78,SE,130,2.0,2.0,89,0.00,,,0.14,Wunderground v.1.15,2013-03-06 00:50:00,
2013-03-05 16:55:00,43.1,40.1,29.78,SE,130,2.0,2.0,89,0.00,,,0.14,Wunderground v.1.15,2013-03-06 00:55:00,
2013-03-05 17:05:00,43.1,40.1,29.77,SE,130,0.0,1.0,89,0.00,,,0.14,Wunderground v.1.15,2013-03-06 01:05:00,
2013-03-05 17:10:00,43.1,40.1,29.77,SE,130,0.0,0.0,89,0.00,,,0.14,Wunderground v.1.15,2013-03-06 01:10:00,
2013-03-05 17:15:00,43.0,40.3,29.77,ESE,112,1.0,1.0,90,0.00,,,0.14,Wunderground v.1.15,2013-03-06 01:15:00,
2013-03-05 17:20:00,42.9,40.2,29.77,ESE,112,1.0,1.0,90,0.00,,,0.14,Wunderground v.1.15,2013-03-06 01:20:00,
2013-03-05 17:25:00,42.7,40.3,29.77,East,98,0.0,1.0,91,0.00,,,0.14,Wunderground v.1.15,2013-03-06 01:25:00,
2013-03-05 17:30:00,42.6,40.2,29.77,East,97,1.0,1.0,91,0.00,,,0.14,Wunderground v.1.15,2013-03-06 01:30:00,
2013-03-05 17:35:00,42.4,40.0,29.77,NW,315,1.0,3.0,91,0.00,,,0.14,Wunderground v.1.15,2013-03-06 01:35:00,
2013-03-05 17:40:00,42.3,39.9,29.77,NNW,333,2.0,2.0,91,0.00,,,0.14,Wunderground v.1.15,2013-03-06 01:40:00,
2013-03-05 17:49:00,42.2,40.0,29.76,NNW,338,2.0,2.0,92,0.00,,,0.14,Wunderground v.1.15,2013-03-06 01:49:00,
2013-03-05 17:54:00,42.2,40.0,29.76,NNW,340,1.0,2.0,92,0.00,,,0.14,Wunderground v.1.15,2013-03-06 01:54:00,
2013-03-05 17:59:00,42.1,39.9,29.76,NNW,340,1.0,1.0,92,0.00,,,0.14,Wunderground v.1.15,2013-03-06 01:59:00,
2013-03-05 18:05:00,42.1,40.2,29.76,NNW,336,1.0,1.0,93,0.00,,,0.14,Wunderground v.1.15,2013-03-06 02:05:00,
2013-03-05 18:10:00,42.1,40.2,29.77,NNW,341,1.0,1.0,93,0.00,,,0.14,Wunderground v.1.15,2013-03-06 02:10:00,
2013-03-05 18:15:00,42.0,40.1,29.77,NNW,340,1.0,1.0,93,0.00,,,0.14,Wunderground v.1.15,2013-03-06 02:15:00,
2013-03-05 18:19:00,42.0,40.1,29.77,NNW,340,1.0,1.0,93,0.00,,,0.14,Wunderground v.1.15,2013-03-06 02:19:00,
2013-03-05 18:25:00,42.0,40.1,29.77,NNW,340,0.0,1.0,93,0.00,,,0.14,Wunderground v.1.15,2013-03-06 02:25:00,
2013-03-05 18:30:00,41.9,40.0,29.77,NNW,340,0.0,0.0,93,0.00,,,0.14,Wunderground v.1.15,2013-03-06 02:30:00,
2013-03-05 18:35:00,41.9,40.3,29.77,NNW,340,0.0,0.0,94,0.00,,,0.14,Wunderground v.1.15,2013-03-06 02:35:00,
2013-03-05 18:40:00,41.8,40.2,29.77,NNW,340,0.0,0.0,94,0.00,,,0.14,Wunderground v.1.15,2013-03-06 02:40:00,
2013-03-05 18:45:00,41.8,40.2,29.77,NNW,340,0.0,0.0,94,0.00,,,0.14,Wunderground v.1.15,2013-03-06 02:45:00,
2013-03-05 18:50:00,41.7,40.1,29.76,NNW,340,0.0,0.0,94,0.00,,,0.14,Wunderground v.1.15,2013-03-06 02:50:00,
2013-03-05 18:54:00,41.6,40.0,29.76,NNW,340,0.0,0.0,94,0.00,,,0.15,Wunderground v.1.15,2013-03-06 02:54:00,
2013-03-05 18:59:00,41.6,40.0,29.76,NNW,340,0.0,0.0,94,0.00,,,0.15,Wunderground v.1.15,2013-03-06 02:59:00,
2013-03-05 19:05:00,41.6,40.0,29.76,NNW,340,0.0,0.0,94,0.00,,,0.15,Wunderground v.1.15,2013-03-06 03:05:00,
2013-03-05 19:09:00,41.5,39.9,29.76,NNW,340,0.0,0.0,94,0.00,,,0.15,Wunderground v.1.15,2013-03-06 03:09:00,
2013-03-05 19:15:00,41.5,39.9,29.76,NNW,340,0.0,0.0,94,0.00,,,0.15,Wunderground v.1.15,2013-03-06 03:15:00,
2013-03-05 19:20:00,41.4,39.8,29.75,NNW,340,0.0,0.0,94,0.00,,,0.15,Wunderground v.1.15,2013-03-06 03:20:00,
2013-03-05 19:30:00,41.4,40.1,29.75,NNW,340,0.0,0.0,95,0.00,,,0.15,Wunderground v.1.15,2013-03-06 03:30:00,
2013-03-05 19:40:00,41.3,40.0,29.74,NNW,340,0.0,2.0,95,0.00,,,0.15,Wunderground v.1.15,2013-03-06 03:40:00,
2013-03-05 19:45:00,41.4,40.1,29.74,NW,326,1.0,2.0,95,0.00,,,0.15,Wunderground v.1.15,2013-03-06 03:45:00,
2013-03-05 19:55:00,41.4,40.1,29.74,ESE,112,2.0,2.0,95,0.00,,,0.15,Wunderground v.1.15,2013-03-06 03:55:00,
2013-03-05 20:00:00,41.5,40.2,29.74,SE,130,2.0,4.0,95,0.00,,,0.15,Wunderground v.1.15,2013-03-06 04:00:00,
2013-03-05 20:05:00,41.6,40.3,29.74,SE,129,1.0,4.0,95,0.00,,,0.15,Wunderground v.1.15,2013-03-06 04:05:00,
2013-03-05 20:10:00,41.6,40.3,29.74,ESE,122,1.0,1.0,95,0.00,,,0.15,Wunderground v.1.15,2013-03-06 04:10:00,
2013-03-05 20:14:00,41.6,40.3,29.74,ESE,113,2.0,3.0,95,0.00,,,0.15,Wunderground v.1.15,2013-03-06 04:14:00,
2013-03-05 20:20:00,41.7,40.1,29.73,ESE,105,3.0,3.0,94,0.00,,,0.15,Wunderground v.1.15,2013-03-06 04:20:00,
2013-03-05 20:24:00,41.7,40.1,29.73,ESE,119,3.0,7.0,94,0.00,,,0.15,Wunderground v.1.15,2013-03-06 04:24:00,
2013-03-05 20:30:00,41.8,39.9,29.73,East,100,4.0,5.0,93,0.00,,,0.15,Wunderground v.1.15,2013-03-06 04:30:00,
2013-03-05 20:35:00,41.8,39.9,29.73,SE,124,3.0,5.0,93,0.00,,,0.15,Wunderground v.1.15,2013-03-06 04:35:00,
2013-03-05 20:40:00,41.8,39.6,29.73,East,101,3.0,5.0,92,0.00,,,0.15,Wunderground v.1.15,2013-03-06 04:40:00,
2013-03-05 20:45:00,41.7,39.5,29.73,ESE,115,4.0,5.0,92,0.00,,,0.15,Wunderground v.1.15,2013-03-06 04:45:00,
2013-03-05 20:54:00,41.6,39.4,29.73,ESE,113,3.0,4.0,92,0.00,,,0.15,Wunderground v.1.15,2013-03-06 04:54:00,
2013-03-05 20:59:00,41.6,39.4,29.73,ESE,120,3.0,3.0,92,0.00,,,0.15,Wunderground v.1.15,2013-03-06 04:59:00,
2013-03-05 21:05:00,41.5,39.3,29.73,ESE,105,3.0,5.0,92,0.00,,,0.15,Wunderground v.1.15,2013-03-06 05:05:00,
2013-03-05 21:10:00,41.5,39.1,29.73,ESE,118,4.0,4.0,91,0.00,,,0.15,Wunderground v.1.15,2013-03-06 05:10:00,
2013-03-05 21:15:00,41.5,39.1,29.72,ESE,114,4.0,4.0,91,0.00,,,0.15,Wunderground v.1.15,2013-03-06 05:15:00,
2013-03-05 21:20:00,41.5,39.1,29.72,ESE,107,4.0,7.0,91,0.00,,,0.15,Wunderground v.1.15,2013-03-06 05:20:00,
2013-03-05 21:25:00,41.5,39.1,29.72,ESE,121,3.0,7.0,91,0.00,,,0.15,Wunderground v.1.15,2013-03-06 05:25:00,
2013-03-05 21:30:00,41.5,39.1,29.72,East,98,4.0,4.0,91,0.00,,,0.15,Wunderground v.1.15,2013-03-06 05:30:00,
2013-03-05 21:35:00,41.4,39.0,29.72,East,96,3.0,5.0,91,0.00,,,0.15,Wunderground v.1.15,2013-03-06 05:35:00,
2013-03-05 21:40:00,41.4,39.0,29.72,ESE,120,3.0,3.0,91,0.00,,,0.15,Wunderground v.1.15,2013-03-06 05:40:00,
2013-03-05 21:45:00,41.3,38.9,29.72,ESE,120,3.0,3.0,91,0.00,,,0.15,Wunderground v.1.15,2013-03-06 05:45:00,
2013-03-05 21:49:00,41.3,38.9,29.72,East,96,3.0,3.0,91,0.00,,,0.15,Wunderground v.1.15,2013-03-06 05:49:00,
2013-03-05 21:54:00,41.3,38.9,29.72,ESE,121,3.0,3.0,91,0.00,,,0.15,Wunderground v.1.15,2013-03-06 05:54:00,
2013-03-05 21:59:00,41.3,38.9,29.71,ESE,109,3.0,4.0,91,0.00,,,0.15,Wunderground v.1.15,2013-03-06 05:59:00,
2013-03-05 22:05:00,41.3,38.9,29.71,ESE,113,3.0,4.0,91,0.00,,,0.15,Wunderground v.1.15,2013-03-06 06:05:00,
2013-03-05 22:10:00,41.3,38.9,29.71,SE,136,3.0,5.0,91,0.00,,,0.15,Wunderground v.1.15,2013-03-06 06:10:00,
2013-03-05 22:15:00,41.4,39.0,29.71,SE,130,3.0,5.0,91,0.00,,,0.15,Wunderground v.1.15,2013-03-06 06:15:00,
2013-03-05 22:20:00,41.4,38.7,29.71,ESE,115,3.0,4.0,90,0.00,,,0.15,Wunderground v.1.15,2013-03-06 06:20:00,
2013-03-05 22:25:00,41.4,38.7,29.71,SE,125,4.0,6.0,90,0.00,,,0.15,Wunderground v.1.15,2013-03-06 06:25:00,
2013-03-05 22:30:00,41.4,38.7,29.71,SE,133,5.0,5.0,90,0.00,,,0.15,Wunderground v.1.15,2013-03-06 06:30:00,
2013-03-05 22:35:00,41.4,38.7,29.70,ESE,121,6.0,6.0,90,0.00,,,0.15,Wunderground v.1.15,2013-03-06 06:35:00,
2013-03-05 22:39:00,41.4,38.7,29.70,SE,142,7.0,9.0,90,0.00,,,0.15,Wunderground v.1.15,2013-03-06 06:39:00,
2013-03-05 22:44:00,41.4,38.7,29.70,SE,129,8.0,9.0,90,0.00,,,0.15,Wunderground v.1.15,2013-03-06 06:44:00,
2013-03-05 22:50:00,41.4,39.0,29.70,SE,132,8.0,8.0,91,0.00,,,0.15,Wunderground v.1.15,2013-03-06 06:50:00,
2013-03-05 22:55:00,41.3,38.9,29.70,ESE,113,7.0,8.0,91,0.00,,,0.15,Wunderground v.1.15,2013-03-06 06:55:00,
2013-03-05 23:00:00,41.2,38.8,29.69,ESE,113,6.0,6.0,91,0.00,,,0.15,Wunderground v.1.15,2013-03-06 07:00:00,
2013-03-05 23:05:00,41.1,38.4,29.69,SE,129,5.0,7.0,90,0.00,,,0.15,Wunderground v.1.15,2013-03-06 07:05:00,
2013-03-05 23:10:00,41.1,38.4,29.69,ESE,117,5.0,8.0,90,0.00,,,0.15,Wunderground v.1.15,2013-03-06 07:10:00,
2013-03-05 23:15:00,41.1,38.4,29.69,ESE,123,5.0,8.0,90,0.00,,,0.15,Wunderground v.1.15,2013-03-06 07:15:00,
2013-03-05 23:20:00,41.1,38.4,29.69,SE,126,5.0,5.0,90,0.00,,,0.15,Wunderground v.1.15,2013-03-06 07:20:00,
2013-03-05 23:25:00,41.0,38.6,29.69,SE,144,5.0,5.0,91,0.00,,,0.15,Wunderground v.1.15,2013-03-06 07:25:00,
2013-03-05 23:30:00,40.8,38.4,29.68,SE,144,5.0,5.0,91,0.00,,,0.15,Wunderground v.1.15,2013-03-06 07:30:00,
2013-03-05 23:35:00,40.7,38.6,29.68,SSE,150,5.0,5.0,92,0.00,,,0.15,Wunderground v.1.15,2013-03-06 07:35:00,
2013-03-05 23:40:00,40.6,38.5,29.68,SSE,149,6.0,6.0,92,0.00,,,0.15,Wunderground v.1.15,2013-03-06 07:40:00,
2013-03-05 23:45:00,40.6,38.5,29.68,SE,134,6.0,7.0,92,0.00,,,0.15,Wunderground v.1.15,2013-03-06 07:45:00,
2013-03-05 23:50:00,40.6,38.5,29.68,SE,136,7.0,7.0,92,0.00,,,0.15,Wunderground v.1.15,2013-03-06 07:50:00,
2013-03-05 23:55:00,40.7,38.6,29.68,ESE,119,7.0,7.0,92,0.00,,,0.15,Wunderground v.1.15,2013-03-06 07:55:00,